owner,sensor,date,latitude,longitude,vertical_datum,sea_water_temperature,qcFlag
LLOG,ioos:station:wmo:42940:1,2021-10-01T00:00:00Z,27.6913,-91.1141,10.0,51.2,11144222
LLOG,ioos:station:wmo:42940:1,2021-10-01T00:10:00Z,27.6913,-91.1141,10.0,48.4,11144222
LLOG,ioos:station:wmo:42940:1,2021-10-01T00:20:00Z,27.6913,-91.1141,10.0,50.7,11144222
LLOG,ioos:station:wmo:42940:1,2021-10-01T00:30:00Z,27.6913,-91.1141,10.0,52.6,11144222
LLOG,ioos:station:wmo:42940:1,2021-10-01T00:40:00Z,27.6913,-91.1141,10.0,52.6,11144222
LLOG,ioos:station:wmo:42940:1,2021-10-01T00:50:00Z,27.6913,-91.1141,10.0,50.8,11144222
LLOG,ioos:station:wmo:42940:1,2021-10-01T01:00:00Z,27.6913,-91.1141,10.0,50.4,11144222
LLOG,ioos:station:wmo:42940:1,2021-10-01T01:10:00Z,27.6913,-91.1141,10.0,49.7,11144222
LLOG,ioos:station:wmo:42940:1,2021-10-01T01:20:00Z,27.6913,-91.1141,10.0,52.1,11144222
LLOG,ioos:station:wmo:42940:1,2021-10-01T01:30:00Z,27.6913,-91.1141,10.0,52.0,11144222
LLOG,ioos:station:wmo:42940:1,2021-10-01T01:40:00Z,27.6913,-91.1141,10.0,50.2,11144222
LLOG,ioos:station:wmo:42940:1,2021-10-01T01:50:00Z,27.6913,-91.1141,10.0,50.1,11144222
LLOG,ioos:station:wmo:42940:1,2021-10-01T02:00:00Z,27.6913,-91.1141,10.0,49.6,11144222
LLOG,ioos:station:wmo:42940:1,2021-10-01T02:10:00Z,27.6913,-91.1141,10.0,49.6,11144222
LLOG,ioos:station:wmo:42940:1,2021-10-01T02:20:00Z,27.6913,-91.1141,10.0,49.6,11144222
LLOG,ioos:station:wmo:42940:1,2021-10-01T02:30:00Z,27.6913,-91.1141,10.0,49.3,11144222
LLOG,ioos:station:wmo:42940:1,2021-10-01T02:40:00Z,27.6913,-91.1141,10.0,49.2,11144222
LLOG,ioos:station:wmo:42940:1,2021-10-01T02:50:00Z,27.6913,-91.1141,10.0,49.0,11144222
LLOG,ioos:station:wmo:42940:1,2021-10-01T03:00:00Z,27.6913,-91.1141,10.0,49.0,11144222
LLOG,ioos:station:wmo:42940:1,2021-10-01T03:10:00Z,27.6913,-91.1141,10.0,48.8,11144222
LLOG,ioos:station:wmo:42940:1,2021-10-01T03:20:00Z,27.6913,-91.1141,10.0,48.8,11144222
LLOG,ioos:station:wmo:42940:1,2021-10-01T03:31:00Z,27.6913,-91.1141,10.0,48.8,11144222
LLOG,ioos:station:wmo:42940:1,2021-10-01T03:41:00Z,27.6913,-91.1141,10.0,50.3,11144222
LLOG,ioos:station:wmo:42940:1,2021-10-01T03:51:00Z,27.6913,-91.1141,10.0,50.1,11144222
LLOG,ioos:station:wmo:42940:1,2021-10-01T04:01:00Z,27.6913,-91.1141,10.0,51.6,11144222
LLOG,ioos:station:wmo:42940:1,2021-10-01T04:11:00Z,27.6913,-91.1141,10.0,51.5,11144222
LLOG,ioos:station:wmo:42940:1,2021-10-01T04:21:00Z,27.6913,-91.1141,10.0,51.4,11144222
LLOG,ioos:station:wmo:42940:1,2021-10-01T04:31:00Z,27.6913,-91.1141,10.0,50.8,11144222
LLOG,ioos:station:wmo:42940:1,2021-10-01T04:41:00Z,27.6913,-91.1141,10.0,51.0,11144222
LLOG,ioos:station:wmo:42940:1,2021-10-01T04:51:00Z,27.6913,-91.1141,10.0,50.5,11144222
LLOG,ioos:station:wmo:42940:1,2021-10-01T05:01:00Z,27.6913,-91.1141,10.0,50.6,11144222
LLOG,ioos:station:wmo:42940:1,2021-10-01T05:11:00Z,27.6913,-91.1141,10.0,50.5,11144222
LLOG,ioos:station:wmo:42940:1,2021-10-01T05:21:00Z,27.6913,-91.1141,10.0,50.8,11144222
LLOG,ioos:station:wmo:42940:1,2021-10-01T05:31:00Z,27.6913,-91.1141,10.0,50.7,11144222
LLOG,ioos:station:wmo:42940:1,2021-10-01T05:41:00Z,27.6913,-91.1141,10.0,50.6,11144222
LLOG,ioos:station:wmo:42940:1,2021-10-01T05:51:00Z,27.6913,-91.1141,10.0,50.2,11144222
LLOG,ioos:station:wmo:42940:1,2021-10-01T06:01:00Z,27.6913,-91.1141,10.0,50.3,11144222
LLOG,ioos:station:wmo:42940:1,2021-10-01T06:11:00Z,27.6913,-91.1141,10.0,50.9,11144222
LLOG,ioos:station:wmo:42940:1,2021-10-01T06:21:00Z,27.6913,-91.1141,10.0,46.8,11144222
LLOG,ioos:station:wmo:42940:1,2021-10-01T06:31:00Z,27.6913,-91.1141,10.0,49.6,11144222
LLOG,ioos:station:wmo:42940:1,2021-10-01T06:41:00Z,27.6913,-91.1141,10.0,49.1,11144222
LLOG,ioos:station:wmo:42940:1,2021-10-01T06:51:00Z,27.6913,-91.1141,10.0,49.7,11144222
LLOG,ioos:station:wmo:42940:1,2021-10-01T07:01:00Z,27.6913,-91.1141,10.0,48.5,11144222
LLOG,ioos:station:wmo:42940:1,2021-10-01T07:11:00Z,27.6913,-91.1141,10.0,47.3,11144222
LLOG,ioos:station:wmo:42940:1,2021-10-01T07:21:00Z,27.6913,-91.1141,10.0,49.3,11144222
LLOG,ioos:station:wmo:42940:1,2021-10-01T07:31:00Z,27.6913,-91.1141,10.0,49.2,11144222
LLOG,ioos:station:wmo:42940:1,2021-10-01T07:41:00Z,27.6913,-91.1141,10.0,48.3,11144222
LLOG,ioos:station:wmo:42940:1,2021-10-01T07:51:00Z,27.6913,-91.1141,10.0,48.2,11144222
LLOG,ioos:station:wmo:42940:1,2021-10-01T08:01:00Z,27.6913,-91.1141,10.0,50.5,11144222
LLOG,ioos:station:wmo:42940:1,2021-10-01T08:11:00Z,27.6913,-91.1141,10.0,47.2,11144222
LLOG,ioos:station:wmo:42940:1,2021-10-01T08:21:00Z,27.6913,-91.1141,10.0,48.0,11144222
LLOG,ioos:station:wmo:42940:1,2021-10-01T08:31:00Z,27.6913,-91.1141,10.0,47.7,11144222
LLOG,ioos:station:wmo:42940:1,2021-10-01T08:41:00Z,27.6913,-91.1141,10.0,51.0,11144222
LLOG,ioos:station:wmo:42940:1,2021-10-01T08:51:00Z,27.6913,-91.1141,10.0,50.9,11144222
LLOG,ioos:station:wmo:42940:1,2021-10-01T09:01:00Z,27.6913,-91.1141,10.0,49.2,11144222
LLOG,ioos:station:wmo:42940:1,2021-10-01T09:11:00Z,27.6913,-91.1141,10.0,49.2,11144222
LLOG,ioos:station:wmo:42940:1,2021-10-01T09:21:00Z,27.6913,-91.1141,10.0,49.6,11144222
LLOG,ioos:station:wmo:42940:1,2021-10-01T09:31:00Z,27.6913,-91.1141,10.0,50.0,11144222
LLOG,ioos:station:wmo:42940:1,2021-10-01T09:41:00Z,27.6913,-91.1141,10.0,49.3,11144222
LLOG,ioos:station:wmo:42940:1,2021-10-01T09:51:00Z,27.6913,-91.1141,10.0,49.8,11144222
LLOG,ioos:station:wmo:42940:1,2021-10-01T10:01:00Z,27.6913,-91.1141,10.0,49.2,11144222
LLOG,ioos:station:wmo:42940:1,2021-10-01T10:11:00Z,27.6913,-91.1141,10.0,48.4,11144222
LLOG,ioos:station:wmo:42940:1,2021-10-01T10:21:00Z,27.6913,-91.1141,10.0,49.0,11144222
LLOG,ioos:station:wmo:42940:1,2021-10-01T10:31:00Z,27.6913,-91.1141,10.0,47.7,11144222
LLOG,ioos:station:wmo:42940:1,2021-10-01T10:41:00Z,27.6913,-91.1141,10.0,48.5,11144222
LLOG,ioos:station:wmo:42940:1,2021-10-01T10:51:00Z,27.6913,-91.1141,10.0,49.0,11144222
LLOG,ioos:station:wmo:42940:1,2021-10-01T11:01:00Z,27.6913,-91.1141,10.0,48.5,11144222
LLOG,ioos:station:wmo:42940:1,2021-10-01T11:11:00Z,27.6913,-91.1141,10.0,48.3,11144222
LLOG,ioos:station:wmo:42940:1,2021-10-01T11:21:00Z,27.6913,-91.1141,10.0,48.3,11144222
LLOG,ioos:station:wmo:42940:1,2021-10-01T11:31:00Z,27.6913,-91.1141,10.0,48.4,11144222
LLOG,ioos:station:wmo:42940:1,2021-10-01T11:41:00Z,27.6913,-91.1141,10.0,48.5,11144222
LLOG,ioos:station:wmo:42940:1,2021-10-01T11:51:00Z,27.6913,-91.1141,10.0,48.1,11144222
LLOG,ioos:station:wmo:42940:1,2021-10-01T12:01:00Z,27.6913,-91.1141,10.0,46.8,11144222
LLOG,ioos:station:wmo:42940:1,2021-10-01T12:11:00Z,27.6913,-91.1141,10.0,45.9,11144222
LLOG,ioos:station:wmo:42940:1,2021-10-01T12:21:00Z,27.6913,-91.1141,10.0,44.0,11144222
LLOG,ioos:station:wmo:42940:1,2021-10-01T12:31:00Z,27.6913,-91.1141,10.0,43.5,11144222
LLOG,ioos:station:wmo:42940:1,2021-10-01T12:41:00Z,27.6913,-91.1141,10.0,45.9,11144222
LLOG,ioos:station:wmo:42940:1,2021-10-01T12:51:00Z,27.6913,-91.1141,10.0,45.9,11144222
LLOG,ioos:station:wmo:42940:1,2021-10-01T13:01:00Z,27.6913,-91.1141,10.0,15.1,11111222
LLOG,ioos:station:wmo:42940:1,2021-10-01T13:11:00Z,27.6913,-91.1141,10.0,15.8,11111222
LLOG,ioos:station:wmo:42940:1,2021-10-01T13:21:00Z,27.6913,-91.1141,10.0,16.0,11111222
LLOG,ioos:station:wmo:42940:1,2021-10-01T13:31:00Z,27.6913,-91.1141,10.0,30.8,11111222
LLOG,ioos:station:wmo:42940:1,2021-10-01T13:41:00Z,27.6913,-91.1141,10.0,53.2,11144222
LLOG,ioos:station:wmo:42940:1,2021-10-01T13:51:00Z,27.6913,-91.1141,10.0,57.6,11144222
LLOG,ioos:station:wmo:42940:1,2021-10-01T14:01:00Z,27.6913,-91.1141,10.0,34.5,11111222
LLOG,ioos:station:wmo:42940:1,2021-10-01T14:11:00Z,27.6913,-91.1141,10.0,51.7,11144222
LLOG,ioos:station:wmo:42940:1,2021-10-01T14:21:00Z,27.6913,-91.1141,10.0,53.5,11144222
LLOG,ioos:station:wmo:42940:1,2021-10-01T14:31:00Z,27.6913,-91.1141,10.0,56.0,11144222
LLOG,ioos:station:wmo:42940:1,2021-10-01T14:41:00Z,27.6913,-91.1141,10.0,45.5,11144222
LLOG,ioos:station:wmo:42940:1,2021-10-01T14:51:00Z,27.6913,-91.1141,10.0,48.8,11144222
LLOG,ioos:station:wmo:42940:1,2021-10-01T15:01:00Z,27.6913,-91.1141,10.0,48.9,11144222
LLOG,ioos:station:wmo:42940:1,2021-10-01T15:11:00Z,27.6913,-91.1141,10.0,58.6,11144222
LLOG,ioos:station:wmo:42940:1,2021-10-01T15:21:00Z,27.6913,-91.1141,10.0,42.4,11144222
LLOG,ioos:station:wmo:42940:1,2021-10-01T15:31:00Z,27.6913,-91.1141,10.0,49.9,11144222
LLOG,ioos:station:wmo:42940:1,2021-10-01T15:41:00Z,27.6913,-91.1141,10.0,51.3,11144222
LLOG,ioos:station:wmo:42940:1,2021-10-01T15:51:00Z,27.6913,-91.1141,10.0,54.5,11144222
LLOG,ioos:station:wmo:42940:1,2021-10-01T16:01:00Z,27.6913,-91.1141,10.0,54.2,11144222
LLOG,ioos:station:wmo:42940:1,2021-10-01T16:11:00Z,27.6913,-91.1141,10.0,32.9,11111222
LLOG,ioos:station:wmo:42940:1,2021-10-01T16:21:00Z,27.6913,-91.1141,10.0,46.9,11144222
LLOG,ioos:station:wmo:42940:1,2021-10-01T16:31:00Z,27.6913,-91.1141,10.0,27.4,11111222
LLOG,ioos:station:wmo:42940:1,2021-10-01T16:41:00Z,27.6913,-91.1141,10.0,56.0,11144222
LLOG,ioos:station:wmo:42940:1,2021-10-01T16:51:00Z,27.6913,-91.1141,10.0,55.7,11144222
LLOG,ioos:station:wmo:42940:1,2021-10-01T17:01:00Z,27.6913,-91.1141,10.0,52.1,11144222
LLOG,ioos:station:wmo:42940:1,2021-10-01T17:11:00Z,27.6913,-91.1141,10.0,54.5,11144222
LLOG,ioos:station:wmo:42940:1,2021-10-01T17:21:00Z,27.6913,-91.1141,10.0,57.9,11144222
LLOG,ioos:station:wmo:42940:1,2021-10-01T17:31:00Z,27.6913,-91.1141,10.0,52.0,11144222
LLOG,ioos:station:wmo:42940:1,2021-10-01T17:41:00Z,27.6913,-91.1141,10.0,51.9,11144222
LLOG,ioos:station:wmo:42940:1,2021-10-01T17:51:00Z,27.6913,-91.1141,10.0,41.0,11144222
LLOG,ioos:station:wmo:42940:1,2021-10-01T18:01:00Z,27.6913,-91.1141,10.0,52.0,11144222
LLOG,ioos:station:wmo:42940:1,2021-10-01T18:11:00Z,27.6913,-91.1141,10.0,32.3,11111222
LLOG,ioos:station:wmo:42940:1,2021-10-01T18:21:00Z,27.6913,-91.1141,10.0,45.5,11144222
LLOG,ioos:station:wmo:42940:1,2021-10-01T18:31:00Z,27.6913,-91.1141,10.0,49.3,11144222
LLOG,ioos:station:wmo:42940:1,2021-10-01T18:41:00Z,27.6913,-91.1141,10.0,56.0,11144222
LLOG,ioos:station:wmo:42940:1,2021-10-01T18:51:00Z,27.6913,-91.1141,10.0,51.8,11144222
LLOG,ioos:station:wmo:42940:1,2021-10-01T19:01:00Z,27.6913,-91.1141,10.0,51.6,11144222
LLOG,ioos:station:wmo:42940:1,2021-10-01T19:11:00Z,27.6913,-91.1141,10.0,57.0,11144222
LLOG,ioos:station:wmo:42940:1,2021-10-01T19:21:00Z,27.6913,-91.1141,10.0,56.4,11144222
LLOG,ioos:station:wmo:42940:1,2021-10-01T19:31:00Z,27.6913,-91.1141,10.0,55.6,11144222
LLOG,ioos:station:wmo:42940:1,2021-10-01T19:41:00Z,27.6913,-91.1141,10.0,50.6,11144222
LLOG,ioos:station:wmo:42940:1,2021-10-01T19:51:00Z,27.6913,-91.1141,10.0,52.0,11144222
LLOG,ioos:station:wmo:42940:1,2021-10-01T20:01:00Z,27.6913,-91.1141,10.0,51.6,11144222
LLOG,ioos:station:wmo:42940:1,2021-10-01T20:11:00Z,27.6913,-91.1141,10.0,43.0,11144222
LLOG,ioos:station:wmo:42940:1,2021-10-01T20:21:00Z,27.6913,-91.1141,10.0,54.2,11144222
LLOG,ioos:station:wmo:42940:1,2021-10-01T20:31:00Z,27.6913,-91.1141,10.0,49.3,11144222
LLOG,ioos:station:wmo:42940:1,2021-10-01T20:41:00Z,27.6913,-91.1141,10.0,50.9,11144222
LLOG,ioos:station:wmo:42940:1,2021-10-01T20:51:00Z,27.6913,-91.1141,10.0,52.4,11144222
LLOG,ioos:station:wmo:42940:1,2021-10-01T21:01:00Z,27.6913,-91.1141,10.0,46.6,11144222
LLOG,ioos:station:wmo:42940:1,2021-10-01T21:11:00Z,27.6913,-91.1141,10.0,52.8,11144222
LLOG,ioos:station:wmo:42940:1,2021-10-01T21:21:00Z,27.6913,-91.1141,10.0,52.6,11144222
LLOG,ioos:station:wmo:42940:1,2021-10-01T21:31:00Z,27.6913,-91.1141,10.0,49.5,11144222
LLOG,ioos:station:wmo:42940:1,2021-10-01T21:41:00Z,27.6913,-91.1141,10.0,48.5,11144222
LLOG,ioos:station:wmo:42940:1,2021-10-01T21:51:00Z,27.6913,-91.1141,10.0,32.0,11111222
LLOG,ioos:station:wmo:42940:1,2021-10-01T22:01:00Z,27.6913,-91.1141,10.0,41.9,11144222
LLOG,ioos:station:wmo:42940:1,2021-10-01T22:11:00Z,27.6913,-91.1141,10.0,49.4,11144222
LLOG,ioos:station:wmo:42940:1,2021-10-01T22:21:00Z,27.6913,-91.1141,10.0,32.2,11111222
LLOG,ioos:station:wmo:42940:1,2021-10-01T22:31:00Z,27.6913,-91.1141,10.0,49.9,11144222
LLOG,ioos:station:wmo:42940:1,2021-10-01T22:41:00Z,27.6913,-91.1141,10.0,44.0,11144222
LLOG,ioos:station:wmo:42940:1,2021-10-01T22:51:00Z,27.6913,-91.1141,10.0,52.2,11144222
LLOG,ioos:station:wmo:42940:1,2021-10-01T23:01:00Z,27.6913,-91.1141,10.0,50.2,11144222
LLOG,ioos:station:wmo:42940:1,2021-10-01T23:11:00Z,27.6913,-91.1141,10.0,49.5,11144222
LLOG,ioos:station:wmo:42940:1,2021-10-01T23:21:00Z,27.6913,-91.1141,10.0,53.1,11144222
LLOG,ioos:station:wmo:42940:1,2021-10-01T23:31:00Z,27.6913,-91.1141,10.0,46.1,11144222
LLOG,ioos:station:wmo:42940:1,2021-10-01T23:41:00Z,27.6913,-91.1141,10.0,52.2,11144222
LLOG,ioos:station:wmo:42940:1,2021-10-01T23:51:00Z,27.6913,-91.1141,10.0,44.3,11144222
LLOG,ioos:station:wmo:42940:1,2021-10-02T00:01:00Z,27.6913,-91.1141,10.0,51.5,11144222
LLOG,ioos:station:wmo:42940:1,2021-10-02T00:11:00Z,27.6913,-91.1141,10.0,51.3,11144222
LLOG,ioos:station:wmo:42940:1,2021-10-02T00:21:00Z,27.6913,-91.1141,10.0,50.2,11144222
LLOG,ioos:station:wmo:42940:1,2021-10-02T00:31:00Z,27.6913,-91.1141,10.0,45.8,11144222
LLOG,ioos:station:wmo:42940:1,2021-10-02T00:41:00Z,27.6913,-91.1141,10.0,61.4,11144222
LLOG,ioos:station:wmo:42940:1,2021-10-02T00:51:00Z,27.6913,-91.1141,10.0,61.3,11144222
LLOG,ioos:station:wmo:42940:1,2021-10-02T01:01:00Z,27.6913,-91.1141,10.0,48.3,11144222
LLOG,ioos:station:wmo:42940:1,2021-10-02T01:11:00Z,27.6913,-91.1141,10.0,45.5,11144222
LLOG,ioos:station:wmo:42940:1,2021-10-02T01:21:00Z,27.6913,-91.1141,10.0,49.5,11144222
LLOG,ioos:station:wmo:42940:1,2021-10-02T01:31:00Z,27.6913,-91.1141,10.0,51.9,11144222
LLOG,ioos:station:wmo:42940:1,2021-10-02T01:41:00Z,27.6913,-91.1141,10.0,52.0,11144222
LLOG,ioos:station:wmo:42940:1,2021-10-02T01:51:00Z,27.6913,-91.1141,10.0,46.6,11144222
LLOG,ioos:station:wmo:42940:1,2021-10-02T02:01:00Z,27.6913,-91.1141,10.0,49.0,11144222
LLOG,ioos:station:wmo:42940:1,2021-10-02T02:11:00Z,27.6913,-91.1141,10.0,48.5,11144222
LLOG,ioos:station:wmo:42940:1,2021-10-02T02:21:00Z,27.6913,-91.1141,10.0,46.4,11144222
LLOG,ioos:station:wmo:42940:1,2021-10-02T02:31:00Z,27.6913,-91.1141,10.0,48.9,11144222
LLOG,ioos:station:wmo:42940:1,2021-10-02T02:41:00Z,27.6913,-91.1141,10.0,58.7,11144222
LLOG,ioos:station:wmo:42940:1,2021-10-02T02:51:00Z,27.6913,-91.1141,10.0,60.0,11144222
LLOG,ioos:station:wmo:42940:1,2021-10-02T03:01:00Z,27.6913,-91.1141,10.0,60.3,11144222
LLOG,ioos:station:wmo:42940:1,2021-10-02T03:11:00Z,27.6913,-91.1141,10.0,60.4,11144222
LLOG,ioos:station:wmo:42940:1,2021-10-02T03:21:00Z,27.6913,-91.1141,10.0,60.2,11144222
LLOG,ioos:station:wmo:42940:1,2021-10-02T03:31:00Z,27.6913,-91.1141,10.0,60.8,11144222
LLOG,ioos:station:wmo:42940:1,2021-10-02T03:41:00Z,27.6913,-91.1141,10.0,61.1,11144222
LLOG,ioos:station:wmo:42940:1,2021-10-02T03:51:00Z,27.6913,-91.1141,10.0,61.5,11144222
LLOG,ioos:station:wmo:42940:1,2021-10-02T04:01:00Z,27.6913,-91.1141,10.0,61.4,11144222
LLOG,ioos:station:wmo:42940:1,2021-10-02T04:11:00Z,27.6913,-91.1141,10.0,61.2,11144222
LLOG,ioos:station:wmo:42940:1,2021-10-02T04:21:00Z,27.6913,-91.1141,10.0,61.1,11144222
LLOG,ioos:station:wmo:42940:1,2021-10-02T04:31:00Z,27.6913,-91.1141,10.0,61.4,11144222
LLOG,ioos:station:wmo:42940:1,2021-10-02T04:41:00Z,27.6913,-91.1141,10.0,60.7,11144222
LLOG,ioos:station:wmo:42940:1,2021-10-02T04:51:00Z,27.6913,-91.1141,10.0,60.3,11144222
LLOG,ioos:station:wmo:42940:1,2021-10-02T05:01:00Z,27.6913,-91.1141,10.0,61.1,11144222
LLOG,ioos:station:wmo:42940:1,2021-10-02T05:11:00Z,27.6913,-91.1141,10.0,60.8,11144222
LLOG,ioos:station:wmo:42940:1,2021-10-02T05:21:00Z,27.6913,-91.1141,10.0,60.9,11144222
LLOG,ioos:station:wmo:42940:1,2021-10-02T05:31:00Z,27.6913,-91.1141,10.0,61.1,11144222
LLOG,ioos:station:wmo:42940:1,2021-10-02T05:41:00Z,27.6913,-91.1141,10.0,60.9,11144222
LLOG,ioos:station:wmo:42940:1,2021-10-02T05:51:00Z,27.6913,-91.1141,10.0,52.2,11144222
LLOG,ioos:station:wmo:42940:1,2021-10-02T06:01:00Z,27.6913,-91.1141,10.0,60.0,11144222
LLOG,ioos:station:wmo:42940:1,2021-10-02T06:11:00Z,27.6913,-91.1141,10.0,60.4,11144222
LLOG,ioos:station:wmo:42940:1,2021-10-02T06:21:00Z,27.6913,-91.1141,10.0,60.1,11144222
LLOG,ioos:station:wmo:42940:1,2021-10-02T06:31:00Z,27.6913,-91.1141,10.0,60.0,11144222
LLOG,ioos:station:wmo:42940:1,2021-10-02T06:41:00Z,27.6913,-91.1141,10.0,60.4,11144222
LLOG,ioos:station:wmo:42940:1,2021-10-02T06:51:00Z,27.6913,-91.1141,10.0,60.1,11144222
LLOG,ioos:station:wmo:42940:1,2021-10-02T07:01:00Z,27.6913,-91.1141,10.0,60.1,11144222
LLOG,ioos:station:wmo:42940:1,2021-10-02T07:11:00Z,27.6913,-91.1141,10.0,60.5,11144222
LLOG,ioos:station:wmo:42940:1,2021-10-02T07:21:00Z,27.6913,-91.1141,10.0,60.3,11144222
LLOG,ioos:station:wmo:42940:1,2021-10-02T07:31:00Z,27.6913,-91.1141,10.0,60.3,11144222
LLOG,ioos:station:wmo:42940:1,2021-10-02T07:41:00Z,27.6913,-91.1141,10.0,60.1,11144222
LLOG,ioos:station:wmo:42940:1,2021-10-02T07:51:00Z,27.6913,-91.1141,10.0,60.2,11144222
LLOG,ioos:station:wmo:42940:1,2021-10-02T08:01:00Z,27.6913,-91.1141,10.0,60.1,11144222
LLOG,ioos:station:wmo:42940:1,2021-10-02T08:11:00Z,27.6913,-91.1141,10.0,60.6,11144222
LLOG,ioos:station:wmo:42940:1,2021-10-02T08:21:00Z,27.6913,-91.1141,10.0,60.4,11144222
LLOG,ioos:station:wmo:42940:1,2021-10-02T08:31:00Z,27.6913,-91.1141,10.0,60.5,11144222
LLOG,ioos:station:wmo:42940:1,2021-10-02T08:41:00Z,27.6913,-91.1141,10.0,60.3,11144222
LLOG,ioos:station:wmo:42940:1,2021-10-02T08:51:00Z,27.6913,-91.1141,10.0,60.3,11144222
LLOG,ioos:station:wmo:42940:1,2021-10-02T09:01:00Z,27.6913,-91.1141,10.0,60.4,11144222
LLOG,ioos:station:wmo:42940:1,2021-10-02T09:11:00Z,27.6913,-91.1141,10.0,60.5,11144222
LLOG,ioos:station:wmo:42940:1,2021-10-02T09:21:00Z,27.6913,-91.1141,10.0,60.3,11144222
LLOG,ioos:station:wmo:42940:1,2021-10-02T09:31:00Z,27.6913,-91.1141,10.0,60.3,11144222
LLOG,ioos:station:wmo:42940:1,2021-10-02T09:41:00Z,27.6913,-91.1141,10.0,60.2,11144222
LLOG,ioos:station:wmo:42940:1,2021-10-02T09:51:00Z,27.6913,-91.1141,10.0,60.1,11144222
LLOG,ioos:station:wmo:42940:1,2021-10-02T10:01:00Z,27.6913,-91.1141,10.0,56.5,11144222
LLOG,ioos:station:wmo:42940:1,2021-10-02T10:11:00Z,27.6913,-91.1141,10.0,56.4,11144222
LLOG,ioos:station:wmo:42940:1,2021-10-02T10:21:00Z,27.6913,-91.1141,10.0,56.2,11144222
LLOG,ioos:station:wmo:42940:1,2021-10-02T10:31:00Z,27.6913,-91.1141,10.0,56.5,11144222
LLOG,ioos:station:wmo:42940:1,2021-10-02T10:41:00Z,27.6913,-91.1141,10.0,56.5,11144222
LLOG,ioos:station:wmo:42940:1,2021-10-02T10:51:00Z,27.6913,-91.1141,10.0,60.6,11144222
LLOG,ioos:station:wmo:42940:1,2021-10-02T11:01:00Z,27.6913,-91.1141,10.0,60.3,11144222
LLOG,ioos:station:wmo:42940:1,2021-10-02T11:11:00Z,27.6913,-91.1141,10.0,60.6,11144222
LLOG,ioos:station:wmo:42940:1,2021-10-02T11:21:00Z,27.6913,-91.1141,10.0,60.7,11144222
LLOG,ioos:station:wmo:42940:1,2021-10-02T11:31:00Z,27.6913,-91.1141,10.0,60.1,11144222
LLOG,ioos:station:wmo:42940:1,2021-10-02T11:41:00Z,27.6913,-91.1141,10.0,60.3,11144222
LLOG,ioos:station:wmo:42940:1,2021-10-02T11:51:00Z,27.6913,-91.1141,10.0,60.2,11144222
LLOG,ioos:station:wmo:42940:1,2021-10-02T12:01:00Z,27.6913,-91.1141,10.0,58.9,11144222
LLOG,ioos:station:wmo:42940:1,2021-10-02T12:11:00Z,27.6913,-91.1141,10.0,58.8,11144222
LLOG,ioos:station:wmo:42940:1,2021-10-02T12:21:00Z,27.6913,-91.1141,10.0,58.9,11144222
LLOG,ioos:station:wmo:42940:1,2021-10-02T12:31:00Z,27.6913,-91.1141,10.0,59.0,11144222
LLOG,ioos:station:wmo:42940:1,2021-10-02T12:41:00Z,27.6913,-91.1141,10.0,59.2,11144222
LLOG,ioos:station:wmo:42940:1,2021-10-02T12:51:00Z,27.6913,-91.1141,10.0,59.0,11144222
LLOG,ioos:station:wmo:42940:1,2021-10-02T13:01:00Z,27.6913,-91.1141,10.0,59.2,11144222
LLOG,ioos:station:wmo:42940:1,2021-10-02T13:11:00Z,27.6913,-91.1141,10.0,59.0,11144222
LLOG,ioos:station:wmo:42940:1,2021-10-02T13:21:00Z,27.6913,-91.1141,10.0,59.2,11144222
LLOG,ioos:station:wmo:42940:1,2021-10-02T13:31:00Z,27.6913,-91.1141,10.0,59.0,11144222
LLOG,ioos:station:wmo:42940:1,2021-10-02T13:41:00Z,27.6913,-91.1141,10.0,58.8,11144222
LLOG,ioos:station:wmo:42940:1,2021-10-02T13:51:00Z,27.6913,-91.1141,10.0,59.2,11144222
LLOG,ioos:station:wmo:42940:1,2021-10-02T14:01:00Z,27.6913,-91.1141,10.0,58.8,11144222
LLOG,ioos:station:wmo:42940:1,2021-10-02T14:11:00Z,27.6913,-91.1141,10.0,59.1,11144222
LLOG,ioos:station:wmo:42940:1,2021-10-02T14:21:00Z,27.6913,-91.1141,10.0,59.2,11144222
LLOG,ioos:station:wmo:42940:1,2021-10-02T14:31:00Z,27.6913,-91.1141,10.0,59.4,11144222
LLOG,ioos:station:wmo:42940:1,2021-10-02T14:41:00Z,27.6913,-91.1141,10.0,59.1,11144222
LLOG,ioos:station:wmo:42940:1,2021-10-02T14:51:00Z,27.6913,-91.1141,10.0,59.1,11144222
LLOG,ioos:station:wmo:42940:1,2021-10-02T15:01:00Z,27.6913,-91.1141,10.0,59.1,11144222
LLOG,ioos:station:wmo:42940:1,2021-10-02T15:11:00Z,27.6913,-91.1141,10.0,59.2,11144222
LLOG,ioos:station:wmo:42940:1,2021-10-02T15:21:00Z,27.6913,-91.1141,10.0,59.2,11144222
LLOG,ioos:station:wmo:42940:1,2021-10-02T15:31:00Z,27.6913,-91.1141,10.0,59.3,11144222
LLOG,ioos:station:wmo:42940:1,2021-10-02T15:41:00Z,27.6913,-91.1141,10.0,57.5,11144222
LLOG,ioos:station:wmo:42940:1,2021-10-02T15:51:00Z,27.6913,-91.1141,10.0,57.5,11144222
LLOG,ioos:station:wmo:42940:1,2021-10-02T16:01:00Z,27.6913,-91.1141,10.0,47.0,11144222
LLOG,ioos:station:wmo:42940:1,2021-10-02T16:11:00Z,27.6913,-91.1141,10.0,51.5,11144222
LLOG,ioos:station:wmo:42940:1,2021-10-02T16:21:00Z,27.6913,-91.1141,10.0,52.1,11144222
LLOG,ioos:station:wmo:42940:1,2021-10-02T16:31:00Z,27.6913,-91.1141,10.0,58.6,11144222
LLOG,ioos:station:wmo:42940:1,2021-10-02T16:41:00Z,27.6913,-91.1141,10.0,59.3,11144222
LLOG,ioos:station:wmo:42940:1,2021-10-02T16:51:00Z,27.6913,-91.1141,10.0,59.8,11144222
LLOG,ioos:station:wmo:42940:1,2021-10-02T17:01:00Z,27.6913,-91.1141,10.0,60.0,11144222
LLOG,ioos:station:wmo:42940:1,2021-10-02T17:11:00Z,27.6913,-91.1141,10.0,59.8,11144222
LLOG,ioos:station:wmo:42940:1,2021-10-02T17:21:00Z,27.6913,-91.1141,10.0,60.1,11144222
LLOG,ioos:station:wmo:42940:1,2021-10-02T17:31:00Z,27.6913,-91.1141,10.0,60.0,11144222
LLOG,ioos:station:wmo:42940:1,2021-10-02T17:41:00Z,27.6913,-91.1141,10.0,60.3,11144222
LLOG,ioos:station:wmo:42940:1,2021-10-02T17:51:00Z,27.6913,-91.1141,10.0,60.5,11144222
LLOG,ioos:station:wmo:42940:1,2021-10-02T18:01:00Z,27.6913,-91.1141,10.0,56.8,11144222
LLOG,ioos:station:wmo:42940:1,2021-10-02T18:11:00Z,27.6913,-91.1141,10.0,56.9,11144222
LLOG,ioos:station:wmo:42940:1,2021-10-02T18:21:00Z,27.6913,-91.1141,10.0,57.0,11144222
LLOG,ioos:station:wmo:42940:1,2021-10-02T18:31:00Z,27.6913,-91.1141,10.0,56.9,11144222
LLOG,ioos:station:wmo:42940:1,2021-10-02T18:41:00Z,27.6913,-91.1141,10.0,57.1,11144222
LLOG,ioos:station:wmo:42940:1,2021-10-02T18:51:00Z,27.6913,-91.1141,10.0,57.2,11144222
LLOG,ioos:station:wmo:42940:1,2021-10-02T19:01:00Z,27.6913,-91.1141,10.0,57.4,11144222
LLOG,ioos:station:wmo:42940:1,2021-10-02T19:11:00Z,27.6913,-91.1141,10.0,57.0,11144222
LLOG,ioos:station:wmo:42940:1,2021-10-02T19:21:00Z,27.6913,-91.1141,10.0,57.1,11144222
LLOG,ioos:station:wmo:42940:1,2021-10-02T19:31:00Z,27.6913,-91.1141,10.0,57.0,11144222
LLOG,ioos:station:wmo:42940:1,2021-10-02T19:41:00Z,27.6913,-91.1141,10.0,57.1,11144222
LLOG,ioos:station:wmo:42940:1,2021-10-02T19:51:00Z,27.6913,-91.1141,10.0,56.7,11144222
LLOG,ioos:station:wmo:42940:1,2021-10-02T20:01:00Z,27.6913,-91.1141,10.0,56.7,11144222
LLOG,ioos:station:wmo:42940:1,2021-10-02T20:11:00Z,27.6913,-91.1141,10.0,56.9,11144222
LLOG,ioos:station:wmo:42940:1,2021-10-02T20:21:00Z,27.6913,-91.1141,10.0,57.0,11144222
LLOG,ioos:station:wmo:42940:1,2021-10-02T20:31:00Z,27.6913,-91.1141,10.0,57.0,11144222
LLOG,ioos:station:wmo:42940:1,2021-10-02T20:41:00Z,27.6913,-91.1141,10.0,57.0,11144222
LLOG,ioos:station:wmo:42940:1,2021-10-02T20:51:00Z,27.6913,-91.1141,10.0,56.8,11144222
LLOG,ioos:station:wmo:42940:1,2021-10-02T21:01:00Z,27.6913,-91.1141,10.0,57.0,11144222